Weather History for KJYG - March, 2013

Change the Weather History Date:

Wednesday, March 20, 2013

  Actual Average Record
Temperature  
Mean Temperature 16 °F -  
Max Temperature 23 °F 42 °F 104 °F (1999)
Min Temperature 10 °F 26 °F 0 °F (1965)
Degree Days  
Heating Degree Days 48    
Moisture  
Dew Point 3 °F    
Average Humidity 55    
Maximum Humidity 73    
Minimum Humidity 42    
Precipitation  
Precipitation 0.00 in - - ()
Sea Level Pressure  
Sea Level Pressure 30.24 in    
Wind  
Wind Speed 19 mph (WNW)    
Max Wind Speed 28 mph    
Max Gust Speed 34 mph    
Visibility 10 miles    
Events      
Averages and records for this station are not official NWS values.
T = Trace of Precipitation, MM = Missing Value Source: NWS Daily Summary

Daily Weather History Graph

Daily Weather History Graph

Search for Another Location

Airport or City:

Trip Planner

Search our weather history database for the weather conditions in past years. The results will help you decide how hot, cold, wet, or windy it might be!

Date:

Astronomy

Mar. 20, 2013 Rise Set
Actual Time 7:20 AM CDT 7:30 PM CDT
Civil Twilight 6:52 AM CDT 7:59 PM CDT
Nautical Twilight 6:18 AM CDT 8:33 PM CDT
Astronomical Twilight 5:43 AM CDT 9:08 PM CDT
Moon 12:55 PM CDT (3/20) 3:12 AM CDT (3/20)
Length of Visible Light 13h 07m
Length of Day
12h 10m
First Quarter, 59% of the Moon is Illuminated
Mar 20
First Quarter
Mar 27
Full
Apr 2
Last Quarter
Apr 10
New
Apr 18
First Quarter

Hourly Weather History & Observations

Time (CDT) Temp. Windchill Dew Point Humidity Pressure Visibility Wind Dir Wind Speed Gust Speed Precip Events Conditions
12:15 AM 15.8 °F -1.1 °F 6.8 °F 68% 30.28 in 10.0 mi WNW 19.6 mph 26.5 mph N/A   Clear
12:35 AM 15.8 °F -1.9 °F 6.8 °F 68% 30.27 in 10.0 mi WNW 21.9 mph 29.9 mph N/A   Clear
12:55 AM 15.8 °F -1.9 °F 6.8 °F 68% 30.28 in 10.0 mi WNW 21.9 mph 25.3 mph N/A   Clear
1:15 AM 14.0 °F -3.4 °F 5.0 °F 67% 30.27 in 10.0 mi WNW 19.6 mph 27.6 mph N/A   Clear
1:35 AM 14.0 °F -3.4 °F 5.0 °F 67% 30.27 in 10.0 mi WNW 19.6 mph 25.3 mph N/A   Clear
1:55 AM 14.0 °F -3.9 °F 5.0 °F 67% 30.27 in 10.0 mi WNW 20.7 mph 29.9 mph N/A   Clear
2:15 AM 12.2 °F -5.3 °F 5.0 °F 73% 30.28 in 10.0 mi WNW 18.4 mph 26.5 mph N/A   Clear
2:35 AM 12.2 °F -5.3 °F 3.2 °F 67% 30.28 in 10.0 mi WNW 18.4 mph 25.3 mph N/A   Clear
2:55 AM 12.2 °F -6.3 °F 1.4 °F 62% 30.28 in 10.0 mi WNW 20.7 mph 26.5 mph N/A   Clear
3:15 AM 12.2 °F -5.3 °F 3.2 °F 67% 30.29 in 10.0 mi WNW 18.4 mph 26.5 mph N/A   Clear
3:35 AM 12.2 °F -6.3 °F 1.4 °F 62% 30.28 in 10.0 mi WNW 20.7 mph 25.3 mph N/A   Clear
3:55 AM 12.2 °F -4.3 °F 3.2 °F 67% 30.29 in 10.0 mi WNW 16.1 mph 26.5 mph N/A   Clear
4:15 AM 12.2 °F -4.8 °F 3.2 °F 67% 30.28 in 10.0 mi WNW 17.3 mph 23.0 mph N/A   Clear
4:35 AM 12.2 °F -5.3 °F 1.4 °F 62% 30.28 in 10.0 mi WNW 18.4 mph 24.2 mph N/A   Clear
4:55 AM 10.4 °F -6.6 °F 1.4 °F 67% 30.29 in 10.0 mi WNW 16.1 mph 20.7 mph N/A   Clear
5:15 AM 10.4 °F -8.2 °F 1.4 °F 67% 30.29 in 10.0 mi WNW 19.6 mph 25.3 mph N/A   Clear
5:35 AM 10.4 °F -7.7 °F 1.4 °F 67% 30.29 in 10.0 mi WNW 18.4 mph 23.0 mph N/A   Clear
5:55 AM 10.4 °F -7.7 °F 1.4 °F 67% 30.29 in 10.0 mi West 18.4 mph 27.6 mph N/A   Clear
6:15 AM 10.4 °F -7.7 °F 1.4 °F 67% 30.29 in 10.0 mi WNW 18.4 mph - N/A   Clear
6:35 AM 10.4 °F -7.2 °F 1.4 °F 67% 30.29 in 10.0 mi West 17.3 mph 21.9 mph N/A   Clear
6:55 AM 10.4 °F -6.0 °F 1.4 °F 67% 30.30 in 10.0 mi WNW 15.0 mph 20.7 mph N/A   Clear
7:15 AM 10.4 °F -7.2 °F 1.4 °F 67% 30.30 in 10.0 mi WNW 17.3 mph 23.0 mph N/A   Clear
7:35 AM 10.4 °F -7.2 °F -0.4 °F 62% 30.31 in 10.0 mi WNW 17.3 mph - N/A   Clear
7:55 AM 10.4 °F -7.2 °F -0.4 °F 62% 30.31 in 10.0 mi WNW 17.3 mph 23.0 mph N/A   Clear
8:15 AM 12.2 °F -4.3 °F 1.4 °F 62% 30.30 in 10.0 mi WNW 16.1 mph - N/A   Clear
8:35 AM 12.2 °F -5.8 °F 1.4 °F 62% 30.30 in 10.0 mi WNW 19.6 mph 23.0 mph N/A   Clear
8:54 AM 12.2 °F -5.3 °F 1.4 °F 62% 30.29 in 10.0 mi WNW 18.4 mph 25.3 mph N/A   Clear
9:15 AM 14.0 °F -3.4 °F 1.4 °F 57% 30.29 in 10.0 mi WNW 19.6 mph 25.3 mph N/A   Clear
9:35 AM 15.8 °F -1.5 °F 1.4 °F 53% 30.29 in 10.0 mi WNW 20.7 mph 27.6 mph N/A   Clear
9:54 AM 15.8 °F -0.6 °F 1.4 °F 53% 30.29 in 10.0 mi WNW 18.4 mph 27.6 mph N/A   Clear
10:15 AM 15.8 °F -2.3 °F 1.4 °F 53% 30.28 in 10.0 mi WNW 23.0 mph 29.9 mph N/A   Clear
10:55 AM 17.6 °F 0.9 °F 1.4 °F 49% 30.28 in 10.0 mi WNW 20.7 mph 29.9 mph N/A   Clear
11:15 AM 17.6 °F 0.9 °F 1.4 °F 49% 30.28 in 10.0 mi WNW 20.7 mph 28.8 mph N/A   Clear
11:35 AM 19.4 °F 2.8 °F 1.4 °F 46% 30.28 in 10.0 mi NW 21.9 mph 28.8 mph N/A   Clear
11:55 AM 19.4 °F 2.5 °F 1.4 °F 46% 30.28 in 10.0 mi NW 23.0 mph 28.8 mph N/A   Clear
12:12 PM 19.4 °F 3.6 °F 1.4 °F 46% 30.27 in 10.0 mi NW 19.6 mph 29.9 mph N/A   Clear
12:35 PM 21.2 °F 4.9 °F 1.4 °F 42% 30.27 in 10.0 mi WNW 23.0 mph 33.4 mph N/A   Clear
12:55 PM 21.2 °F 4.9 °F 1.4 °F 42% 30.26 in 10.0 mi WNW 23.0 mph 31.1 mph N/A   Clear
1:15 PM 21.2 °F 4.2 °F 1.4 °F 42% 30.24 in 10.0 mi NW 25.3 mph 31.1 mph N/A   Clear
1:35 PM 21.2 °F 4.5 °F 1.4 °F 42% 30.24 in 10.0 mi WNW 24.2 mph 31.1 mph N/A   Clear
1:55 PM 21.2 °F 5.2 °F 1.4 °F 42% 30.23 in 10.0 mi WNW 21.9 mph 28.8 mph N/A   Clear
2:14 PM 21.2 °F 4.5 °F 1.4 °F 42% 30.22 in 10.0 mi WNW 24.2 mph 31.1 mph N/A   Clear
2:35 PM 23.0 °F 6.0 °F 3.2 °F 43% 30.22 in 10.0 mi WNW 27.6 mph 34.5 mph N/A   Clear
2:55 PM 23.0 °F 6.3 °F 5.0 °F 46% 30.21 in 10.0 mi NW 26.5 mph 31.1 mph N/A   Clear
3:14 PM 23.0 °F 7.2 °F 3.2 °F 43% 30.20 in 10.0 mi WNW 23.0 mph 33.4 mph N/A   Clear
3:35 PM 23.0 °F 7.6 °F 5.0 °F 46% 30.20 in 10.0 mi WNW 21.9 mph 29.9 mph N/A   Clear
3:55 PM 23.0 °F 7.2 °F 5.0 °F 46% 30.19 in 10.0 mi NW 23.0 mph 28.8 mph N/A   Clear
4:15 PM 23.0 °F 7.2 °F 6.8 °F 50% 30.19 in 10.0 mi WNW 23.0 mph 31.1 mph N/A   Clear
4:35 PM 23.0 °F 6.9 °F 5.0 °F 46% 30.19 in 10.0 mi WNW 24.2 mph 33.4 mph N/A   Clear
4:55 PM 23.0 °F 8.0 °F 6.8 °F 50% 30.19 in 10.0 mi NW 20.7 mph 28.8 mph N/A   Clear
5:15 PM 23.0 °F 8.0 °F 6.8 °F 50% 30.18 in 10.0 mi WNW 20.7 mph 28.8 mph N/A   Clear
5:34 PM 21.2 °F 5.2 °F 5.0 °F 50% 30.18 in 10.0 mi WNW 21.9 mph 27.6 mph N/A   Clear
5:55 PM 21.2 °F 4.5 °F 3.2 °F 46% 30.17 in 10.0 mi WNW 24.2 mph 31.1 mph N/A   Clear
6:15 PM 21.2 °F 6.0 °F 3.2 °F 46% 30.17 in 10.0 mi WNW 19.6 mph 26.5 mph N/A   Clear
6:34 PM 21.2 °F 6.0 °F 3.2 °F 46% 30.17 in 10.0 mi WNW 19.6 mph 28.8 mph N/A   Clear
6:55 PM 21.2 °F 7.3 °F 3.2 °F 46% 30.16 in 10.0 mi WNW 16.1 mph 28.8 mph N/A   Clear
7:15 PM 19.4 °F 5.0 °F 3.2 °F 49% 30.16 in 10.0 mi WNW 16.1 mph 26.5 mph N/A   Clear
7:35 PM 19.4 °F 5.0 °F 3.2 °F 49% 30.16 in 10.0 mi WNW 16.1 mph 21.9 mph N/A   Clear
7:54 PM 19.4 °F 4.5 °F 1.4 °F 46% 30.17 in 10.0 mi WNW 17.3 mph 25.3 mph N/A   Clear
8:14 PM 17.6 °F 2.7 °F 3.2 °F 53% 30.17 in 10.0 mi NW 16.1 mph 21.9 mph N/A   Clear
8:35 PM 17.6 °F 2.7 °F 3.2 °F 53% 30.17 in 10.0 mi WNW 16.1 mph - N/A   Clear
8:55 PM 17.6 °F 3.7 °F 3.2 °F 53% 30.17 in 10.0 mi WNW 13.8 mph - N/A   Clear
9:15 PM 17.6 °F 2.7 °F 3.2 °F 53% 30.17 in 10.0 mi NW 16.1 mph - N/A   Clear
9:35 PM 17.6 °F 5.0 °F 3.2 °F 53% 30.17 in 10.0 mi NW 11.5 mph - N/A   Clear
9:54 PM 17.6 °F 3.7 °F 3.2 °F 53% 30.17 in 10.0 mi NW 13.8 mph - N/A   Clear
10:15 PM 15.8 °F 1.4 °F 3.2 °F 58% 30.17 in 10.0 mi NW 13.8 mph - N/A   Clear
10:35 PM 15.8 °F 1.4 °F 3.2 °F 58% 30.17 in 10.0 mi NW 13.8 mph - N/A   Clear
10:55 PM 15.8 °F 1.4 °F 1.4 °F 53% 30.16 in 10.0 mi NW 13.8 mph - N/A   Clear
11:15 PM 15.8 °F 1.4 °F 1.4 °F 53% 30.15 in 10.0 mi NW 13.8 mph 19.6 mph N/A   Clear
11:35 PM 15.8 °F 2.1 °F 3.2 °F 58% 30.15 in 10.0 mi NW 12.7 mph - N/A   Clear
11:55 PM 15.8 °F 2.7 °F 1.4 °F 53% 30.15 in 10.0 mi NW 11.5 mph - N/A   Clear